CAPE
2000 1983 2040 2003 1957 2032 2106 2159 1749 1994 2054 1950 2150 2204 2097 2245 2082 1681 1764 1854 1793 1817 1894 1794 1843 1799 1874 1668 1517 1438 1506 1484 1406 1478 1560 1515 1522 1490 1431 1485 1412 1326 1233 1169 1067 1040 960 889 775 645 574 457 298 10 4 77 129 188 164 187 218 313
1992 2014 2065 2017 1908 1940 1793 1784 1831 1713 1717 1614 1801 1876 1869 1770 1580 1583 1439 1600 1613 1653 1752 1754 1718 1712 1537 1770 1591 1504 1495 1548 1508 1480 1715 1583 1528 1538 1469 1474 1175 1222 1308 1337 1056 885 1031 985 878 698 484 253 103 8 6 105 118 104 62 87 228 360
2018 2019 2022 1809 1887 1920 1769 1832 1845 1535 1597 1596 1607 1720 1737 1487 1460 1457 1507 1551 1596 1565 1626 1640 1656 1590 1559 1600 1659 1532 1475 1495 1506 1530 1615 1647 1530 1655 1683 1457 1294 1074 945 758 701 722 691 723 711 604 350 260 219 95 9 20 71 22 37 160 161 248
1989 2004 1954 1924 1862 1821 1682 1724 1740 1580 1544 1594 1580 1680 1615 1580 1466 1454 1466 1526 1508 1521 1520 1589 1645 1869 1774 1567 1576 1531 1465 1502 1554 1497 1376 1592 1476 1520 1621 1447 1167 748 587 580 658 616 528 506 401 373 315 276 264 220 51 18 24 44 88 216 144 192
1898 1877 1900 1963 1885 1774 1677 1660 1601 1496 1493 1607 1578 1591 1553 1486 1479 1478 1479 1504 1462 1431 1461 1546 1615 1558 1474 1472 1466 1328 1271 1208 1144 1308 1290 1332 1308 1224 868 448 404 511 529 524 547 473 406 397 386 348 314 326 306 289 189 60 22 54 103 106 258 153
1770 1811 1870 1885 1928 1827 1781 1698 1544 1434 1405 1535 1525 1516 1452 1449 1481 1446 1438 1448 1420 1321 1375 1446 1468 1436 1412 1417 1336 1196 1155 1094 1065 1021 1026 938 926 832 575 431 454 467 484 467 434 405 379 375 357 325 329 337 328 271 225 127 49 93 81 109 292 165
1790 1780 1801 1845 1982 1763 1729 1668 1580 1540 1476 1418 1420 1383 1410 1429 1479 1443 1402 1375 1311 1184 1147 1232 1341 1331 1338 1328 1170 1072 1099 1027 931 863 784 532 414 559 596 448 548 488 479 453 432 425 394 396 389 383 341 330 317 288 241 183 138 122 34 135 425 251
1767 1757 1692 1800 1897 1699 1713 1620 1562 1550 1466 1390 1293 1332 1382 1391 1446 1390 1393 1294 1295 1103 1086 952 1126 1154 1234 1194 1105 1039 1081 999 939 755 582 346 27 149 310 334 630 695 637 529 471 445 439 404 399 475 399 346 322 313 268 256 199 106 114 118 232 217
1691 1666 1519 1575 1650 1575 1629 1582 1476 1252 1477 1520 1283 1218 1212 1236 1402 1362 1285 1272 1250 1223 1124 933 917 957 1058 1135 1081 1080 994 945 828 549 348 121 5 57 0 39 389 900 898 817 669 585 580 595 504 531 507 460 406 343 302 250 187 111 26 48 98 199
1610 1574 1435 1384 1490 1519 1542 1457 1325 1124 1443 1431 1261 1172 1077 1173 1262 1240 1211 1254 1242 1204 1105 935 913 792 847 959 997 1038 911 722 597 374 238 67 1 0 0 168 238 789 820 728 810 790 731 725 622 612 527 556 570 442 371 333 225 49 8 18 78 280
1634 1472 1363 1500 1412 1480 1459 1374 1359 1156 1367 1212 1236 1104 947 902 1154 1095 1149 1191 1148 1149 1087 985 869 774 734 838 894 951 805 665 422 324 274 105 0 0 0 0 72 645 721 578 588 718 884 818 715 582 583 640 676 603 502 362 206 16 19 16 40 127
1576 1458 1333 1394 1464 1355 1292 1229 1302 1203 1378 1151 1265 1119 1035 1025 1094 1113 1155 1143 1136 1110 1018 971 833 808 685 782 828 869 826 629 432 304 234 10 16 0 0 0 256 536 576 508 467 546 878 913 762 615 519 550 559 524 542 451 250 7 7 4 1 18
1539 1341 1335 1296 1348 1262 1236 1202 1204 1167 1276 1057 1102 1067 1004 993 1088 1170 1234 1120 1164 1092 943 952 937 880 737 727 855 863 858 686 519 383 306 0 0 0 4 101 358 401 356 348 314 413 760 882 845 598 463 448 468 492 466 335 142 4 3 0 0 7
1306 1300 1294 1247 1232 1201 1151 1159 1127 1016 1274 1098 1034 1140 1044 1003 961 1075 1252 1264 1204 1153 984 918 1005 1009 887 802 863 861 793 685 545 427 363 171 29 267 0 136 298 182 183 172 219 335 660 751 861 693 423 395 418 430 382 290 145 0 0 0 0 0
1280 1294 1179 1164 1159 1182 1168 1100 1028 934 1159 1204 1043 1064 1064 1021 1024 1106 1262 1344 1293 1220 1172 964 1006 1016 988 887 851 817 750 672 581 481 399 379 295 296 0 17 133 220 252 267 202 344 597 692 844 665 398 382 400 375 331 264 208 0 0 0 0 0
1240 1231 1143 1077 1032 1040 1060 920 907 991 1064 1229 1138 1052 1033 1052 1127 1236 1286 1338 1381 1297 1222 1142 1062 1055 1004 895 792 687 651 586 566 537 473 423 341 282 330 326 251 277 268 346 336 392 551 710 828 713 399 383 374 343 317 287 285 194 0 0 0 0
1126 1156 1129 1032 872 808 875 814 771 844 928 1091 1168 1120 1097 1118 1058 1235 1197 1099 1372 1346 1246 1218 1141 1112 1024 901 784 631 594 582 608 578 538 482 418 322 316 370 348 330 277 347 490 475 592 740 819 591 384 341 336 340 350 371 340 198 127 0 51 176
1145 1091 1085 999 719 555 611 732 650 685 849 934 1011 1118 1232 1185 1084 1141 1096 1040 1228 1266 1260 1223 1127 1085 1062 974 843 724 637 630 639 606 560 504 448 381 344 387 385 357 341 342 477 540 623 712 636 385 310 300 326 355 381 284 108 167 80 3 184 203
1366 1146 1076 974 799 861 642 508 495 453 586 766 831 1024 1128 1111 969 913 953 930 789 1092 1236 1156 1024 990 1025 1010 873 786 706 630 587 534 509 497 450 358 364 402 383 365 352 353 368 448 424 367 340 221 9 10 205 308 279 84 109 169 156 1 187 221
1429 1411 1162 934 805 787 784 637 362 342 430 457 650 927 1029 1062 958 835 902 704 686 928 1170 1131 986 924 960 901 744 634 618 558 565 530 525 529 478 457 456 419 378 358 338 348 335 350 317 187 78 18 36 42 88 121 19 40 2 1 119 16 194 209
1504 1461 1390 1213 987 880 804 745 484 336 511 497 553 897 977 1058 1019 820 777 764 931 916 1084 1147 1020 980 914 783 686 626 593 600 613 567 597 547 516 542 500 452 425 400 400 378 350 336 344 319 145 22 72 114 120 116 184 182 75 53 39 77 112 82
1667 1579 1494 1351 1181 1052 944 846 514 374 371 500 547 678 781 949 965 949 904 920 947 1081 1106 1050 1078 1035 965 701 629 641 603 625 672 656 667 571 543 536 506 510 499 501 484 474 373 276 281 246 16 54 112 188 178 140 179 173 153 225 119 101 62 18
1739 1661 1551 1355 1185 1124 1057 917 527 425 477 442 473 457 674 813 914 974 1052 1010 992 1012 1080 900 933 1030 1041 711 559 584 628 635 737 790 713 623 565 556 604 625 618 582 539 424 338 258 211 201 80 58 100 95 88 92 40 57 39 19 46 133 105 59
1753 1662 1573 1442 1199 1041 1045 1018 683 505 484 499 697 865 807 794 870 930 1038 988 971 1057 1042 845 744 805 928 808 518 514 620 634 775 835 823 740 690 688 678 532 656 611 472 368 295 264 203 205 200 141 13 30 69 75 2 7 53 26 26 37 68 24
1758 1660 1597 1424 1072 802 869 973 884 638 576 637 881 950 932 911 839 920 1045 1051 1079 1136 979 866 718 587 572 601 457 388 596 644 769 818 818 779 732 695 750 792 700 534 472 400 300 259 184 178 161 29 0 0 3 8 6 34 32 4 26 17 10 10
1853 1733 1608 1310 900 776 974 1028 1001 800 739 722 817 961 988 1024 1036 995 1028 1027 1104 1104 971 891 762 643 590 460 375 166 546 699 770 840 836 830 747 667 772 797 692 539 456 430 372 244 88 105 114 4 0 0 0 0 0 28 1 0 2 21 26 8
1709 1690 1530 1286 1054 874 1008 1094 1027 912 831 892 924 929 944 959 1014 1054 1006 949 912 1044 938 817 733 639 609 528 368 148 398 608 777 792 779 792 808 754 766 772 659 568 483 424 372 335 218 113 56 41 0 0 0 0 0 1 0 0 4 11 39 24
1423 1616 1582 1358 1150 1032 1019 1066 984 910 889 949 946 931 897 891 882 976 963 938 813 932 896 814 735 639 644 593 340 344 302 457 620 725 845 916 944 809 783 742 644 523 478 437 394 361 266 76 12 2 42 0 0 0 0 0 0 0 0 1 1 32
1238 1447 1506 1390 1096 1029 1011 968 968 913 994 995 1027 1063 1017 869 806 873 893 872 732 854 834 762 699 712 694 654 610 470 358 436 530 620 711 944 993 903 870 860 713 516 526 515 474 402 218 90 15 1 0 0 0 0 0 0 0 0 0 2 4 8
962 1083 1235 1354 1295 1126 1073 1073 1026 989 938 1004 1032 1026 965 930 838 826 786 861 779 765 779 712 738 762 711 641 608 537 419 511 598 617 587 671 802 878 949 954 782 597 579 565 542 508 386 201 15 0 0 0 0 0 0 0 0 0 0 0 0 8
886 1058 1114 1158 1257 1346 1072 960 1002 1067 974 948 1002 1070 1058 978 923 861 820 884 901 840 795 791 782 783 758 669 630 502 483 534 601 553 404 438 606 811 931 933 782 615 519 550 569 494 378 301 254 0 0 0 0 0 0 0 0 0 0 0 0 4
955 1104 1139 1171 1163 1268 1258 996 975 967 977 966 1011 1094 1116 1062 974 916 806 712 711 695 752 837 717 539 652 725 695 567 476 544 553 526 471 474 609 674 807 840 810 732 545 532 599 494 382 360 333 264 242 134 0 0 0 0 0 0 0 0 0 0
786 902 1149 1137 1039 1021 1021 1043 1006 1042 1011 967 986 1042 1103 1052 1014 962 854 679 721 680 734 710 660 470 451 637 671 522 586 716 855 964 712 584 663 731 733 846 844 796 601 597 624 516 423 419 419 356 294 262 186 0 0 0 0 0 0 0 0 0
1117 1015 979 1047 1137 1076 966 987 1073 1040 997 959 764 754 822 906 922 922 820 644 692 502 494 636 662 551 452 481 532 547 583 730 822 877 902 653 634 819 921 952 857 654 760 712 610 525 474 520 478 422 380 364 324 0 0 0 0 0 0 0 0 0
1270 1056 892 858 840 942 995 955 962 985 897 914 782 684 713 858 925 933 810 708 601 505 333 319 688 493 394 478 577 552 615 673 743 815 896 790 732 624 582 682 769 742 530 754 699 598 560 559 516 472 449 428 399 354 14 0 248 0 0 0 0 0
1036 1080 1027 923 757 650 743 896 813 803 816 897 822 913 855 939 973 962 827 711 643 565 366 172 323 426 390 279 304 428 656 609 622 754 853 835 678 496 430 636 702 610 603 732 716 661 627 603 542 515 496 458 442 408 316 292 302 68 0 0 0 0
604 580 624 716 739 651 561 588 656 649 734 736 690 798 844 895 909 840 721 651 624 520 510 485 479 471 483 403 434 403 540 522 490 670 805 770 708 527 461 605 641 729 701 623 643 621 641 647 618 539 477 469 469 442 400 383 364 98 0 0 0 0
Wind_Speed
24 22 21 21 20 20 20 22 22 25 26 28 28 31 30 32 33 34 36 35 34 31 30 28 27 23 27 21 20 21 21 21 21 21 21 21 20 21 20 21 25 25 23 21 22 23 21 20 19 19 19 17 16 nan nan nan 9 9 10 10 10 7
25 25 23 22 21 20 20 22 20 21 22 25 27 29 29 27 30 28 33 31 29 30 29 26 23 24 19 19 19 20 21 21 21 21 20 21 21 20 20 22 26 25 22 20 22 16 16 19 20 19 19 18 13 nan nan 12 12 11 nan nan 12 15
27 26 24 23 21 22 23 23 23 23 25 26 27 28 27 27 27 28 29 28 28 28 28 24 22 21 18 20 18 20 21 21 21 22 21 21 21 21 19 22 24 25 23 21 17 15 14 14 14 19 18 13 11 nan nan nan nan nan nan 12 13 18
27 26 23 22 22 23 24 24 25 25 27 27 28 29 29 27 28 28 28 27 27 27 26 22 23 25 21 16 17 19 20 20 21 22 22 19 22 20 21 21 21 24 20 16 17 16 14 13 13 13 13 12 11 12 nan nan nan nan nan 14 13 20
28 25 24 22 23 24 25 25 27 28 28 28 30 31 30 29 28 28 28 27 26 25 24 21 20 19 18 17 16 16 16 16 17 18 19 18 17 16 14 13 14 17 16 18 19 16 15 14 13 13 14 13 12 11 13 nan nan nan 14 15 16 19
29 26 23 24 24 26 27 27 29 30 30 30 31 31 29 28 28 30 29 26 25 25 23 20 21 20 18 17 16 16 17 16 18 19 18 17 17 16 14 12 13 15 15 17 18 17 15 14 13 14 14 13 12 11 11 13 nan nan nan 15 16 20
30 28 27 29 29 30 28 29 30 31 32 31 31 31 28 27 28 30 29 26 25 23 21 20 21 20 18 17 16 15 15 16 18 19 18 17 16 16 14 12 12 13 15 17 18 17 16 15 14 14 14 13 12 11 11 11 12 12 nan 12 13 21
29 30 30 32 31 30 30 30 31 31 32 32 33 31 28 26 27 30 30 27 24 22 21 20 20 20 18 17 16 14 14 16 16 16 17 15 nan 16 15 13 11 12 14 16 17 17 16 15 15 14 14 13 12 12 11 10 11 11 12 13 15 19
26 28 30 31 30 28 29 29 30 31 32 34 34 31 28 27 28 29 29 27 24 22 22 21 21 20 19 17 16 14 13 14 14 13 15 15 nan nan nan nan 11 11 13 15 17 17 16 16 16 14 13 13 13 12 11 10 10 11 nan nan nan 14
24 26 28 30 28 28 29 29 29 30 31 35 33 30 28 26 26 29 27 26 24 22 23 22 21 20 19 17 15 14 13 13 13 11 13 nan nan nan nan 14 12 11 12 15 18 17 16 16 15 14 13 14 13 12 11 11 10 nan nan nan nan 12
21 22 24 27 28 27 29 29 29 29 30 32 32 29 26 25 26 26 26 26 24 23 24 23 21 20 17 15 14 15 13 14 13 11 11 13 nan nan nan nan nan 12 11 14 18 18 16 16 15 14 14 14 13 12 11 11 10 nan nan nan nan 13
19 20 23 26 27 27 29 30 28 28 29 31 30 27 25 24 25 25 24 24 24 24 24 23 22 20 16 14 14 14 15 14 11 11 11 nan nan nan nan nan 15 14 13 14 18 19 16 16 15 14 14 13 12 12 11 11 11 nan nan nan nan nan
20 22 26 27 27 31 34 33 29 29 31 31 28 25 24 25 25 23 23 24 24 24 22 22 21 18 15 14 14 14 15 14 13 12 13 nan nan nan nan 16 17 16 15 15 17 18 16 15 15 14 14 12 12 12 11 11 11 nan nan nan nan nan
22 24 26 25 26 29 32 31 29 30 32 34 31 26 24 26 26 24 24 24 24 23 22 21 20 17 16 15 15 14 15 16 15 15 17 17 nan 15 nan 17 17 17 16 16 16 15 15 15 15 14 14 13 13 12 12 12 11 nan nan nan nan nan
24 23 23 24 27 29 28 27 26 27 30 33 31 26 26 28 26 25 25 23 23 22 21 20 18 17 16 16 15 14 15 15 17 18 18 18 17 16 nan nan 17 18 17 17 16 14 14 14 14 15 14 14 14 12 12 12 12 nan nan nan nan nan
23 23 20 19 20 25 27 26 25 27 30 29 26 25 28 25 26 28 26 23 22 21 19 18 17 16 15 14 15 14 14 17 17 18 18 16 16 15 16 17 16 17 19 17 16 15 14 14 14 15 15 14 13 12 12 11 12 12 nan nan nan nan
24 23 22 22 20 17 16 20 25 30 32 29 25 25 26 24 26 26 24 22 21 20 18 16 15 15 15 15 15 14 15 16 17 17 16 14 14 15 16 17 17 15 16 16 16 16 15 14 15 15 15 14 12 11 11 11 11 12 12 nan nan 13
24 26 24 23 22 22 23 20 20 27 28 25 23 23 23 24 23 23 21 21 21 19 17 15 16 16 15 15 15 14 16 16 17 17 16 15 13 14 16 17 18 16 16 16 15 15 15 15 16 16 16 13 11 11 13 12 13 12 nan nan 13 12
24 26 25 23 19 18 22 24 22 23 22 20 21 21 22 23 21 20 20 23 21 15 14 15 15 15 14 14 16 16 16 17 19 17 17 16 15 15 16 16 17 16 16 16 16 14 15 16 17 18 nan nan 12 12 13 nan 13 12 12 nan 13 12
23 25 27 25 21 18 20 20 23 22 19 17 17 19 20 19 20 19 20 22 20 13 11 14 14 14 14 15 17 17 16 17 19 18 17 17 16 15 16 17 16 18 18 18 17 15 15 17 nan nan nan nan nan 13 nan nan nan nan 12 nan 12 12
24 25 26 24 18 15 16 15 15 18 17 16 16 17 17 18 18 17 18 19 18 15 13 15 16 16 14 15 17 17 16 17 19 18 17 17 17 16 17 17 17 17 20 18 16 14 15 18 20 nan nan 16 14 13 13 14 nan nan nan nan 13 nan
25 24 24 23 19 14 13 13 15 18 17 17 17 15 15 18 17 15 16 17 17 16 14 16 17 15 14 15 17 16 15 17 19 17 18 20 19 19 20 20 20 19 17 17 16 14 15 18 nan nan 17 16 16 15 15 15 14 13 13 13 nan nan
22 22 20 21 20 16 16 17 18 18 17 14 12 11 12 16 17 16 15 16 17 17 15 16 17 16 14 13 15 16 15 17 18 18 19 20 20 18 18 19 19 19 18 17 17 15 15 14 nan nan 18 nan nan nan nan nan nan nan nan 13 13 nan
18 19 17 17 17 17 19 21 18 16 16 13 10 11 10 15 17 17 16 18 19 20 19 19 18 16 13 14 15 16 17 17 18 18 18 20 19 17 18 17 19 20 19 18 15 14 12 14 16 19 nan nan nan nan nan nan nan nan nan nan nan nan
15 18 18 16 15 15 17 21 20 16 18 18 15 13 12 13 16 17 19 21 21 22 21 20 20 17 15 15 16 18 18 17 17 18 19 20 18 16 17 18 19 21 16 17 16 15 13 15 13 nan nan nan nan nan nan nan nan nan nan nan nan nan
19 21 20 18 16 15 14 16 19 15 16 18 17 16 15 14 16 17 19 22 22 23 22 21 21 19 17 19 19 19 19 17 17 18 19 19 19 19 18 19 19 19 16 15 18 17 nan 15 12 nan nan nan nan nan nan nan nan nan nan nan nan nan
19 17 17 16 17 15 14 14 13 13 14 15 15 15 15 14 14 18 21 20 20 21 21 21 21 22 21 21 21 21 20 17 18 19 19 20 19 18 18 18 20 18 15 18 19 19 16 15 nan nan nan nan nan nan nan nan nan nan nan nan nan nan
6 8 11 12 13 13 13 15 16 16 17 18 16 15 16 16 17 18 19 19 19 19 20 21 22 22 22 23 23 23 22 20 19 20 19 18 18 19 20 19 18 19 17 18 19 19 17 nan nan nan nan nan nan nan nan nan nan nan nan nan nan nan
14 12 12 12 11 11 12 14 15 17 17 18 20 20 19 18 17 18 18 18 17 17 19 21 22 21 22 24 24 25 24 22 21 20 19 19 19 20 20 19 20 19 18 19 20 20 18 nan nan nan nan nan nan nan nan nan nan nan nan nan nan nan
18 14 12 15 14 14 13 14 14 14 16 17 20 23 23 20 18 17 17 17 17 18 21 23 23 22 24 24 25 26 25 23 22 21 19 20 20 20 20 19 18 17 18 20 20 19 17 17 nan nan nan nan nan nan nan nan nan nan nan nan nan nan
22 14 14 18 17 16 16 16 15 15 17 19 21 24 24 23 21 19 17 18 19 22 25 24 25 22 24 25 25 25 26 24 23 21 19 20 21 21 20 20 21 23 19 19 20 18 19 17 16 nan nan nan nan nan nan nan nan nan nan nan nan nan
24 17 17 20 21 19 17 17 18 17 18 19 22 22 22 22 22 20 20 19 22 24 21 23 24 24 23 25 25 25 26 26 24 22 19 21 22 22 21 22 23 21 19 18 19 19 20 19 17 17 17 17 nan nan nan nan nan nan nan nan nan nan
29 23 21 23 24 22 19 19 20 20 20 21 22 22 23 24 25 24 24 24 22 22 21 22 23 23 24 24 28 28 27 26 26 23 22 23 22 22 22 22 21 21 22 20 18 18 19 19 18 17 16 16 18 nan nan nan nan nan nan nan nan nan
30 27 23 24 25 24 22 20 22 23 25 25 23 23 23 24 25 26 27 24 27 24 20 20 24 22 25 27 25 27 31 32 34 29 23 23 24 22 21 21 21 22 23 20 20 19 19 19 18 17 19 19 18 nan nan nan nan nan nan nan nan nan
29 29 27 24 24 25 24 23 24 27 27 28 26 22 21 22 23 24 23 22 24 25 22 22 25 25 25 25 26 32 34 31 28 25 21 21 21 19 19 24 22 19 20 24 21 20 21 21 20 19 19 18 18 19 nan nan 21 nan nan nan nan nan
29 27 28 28 27 26 22 23 26 25 26 30 30 25 21 19 20 19 23 26 28 27 25 21 21 26 24 28 33 33 28 27 29 27 24 23 21 19 20 24 24 23 21 24 23 21 22 22 20 19 18 19 20 19 21 21 20 nan nan nan nan nan
27 25 24 24 24 24 22 22 27 26 24 26 27 24 19 17 20 20 22 25 26 30 29 22 19 23 25 32 33 29 25 27 28 27 25 24 23 22 25 25 23 24 23 23 24 22 24 22 21 20 20 19 18 20 21 22 22 nan nan nan nan nan
Wind_Direction
271 264 256 252 251 257 270 280 279 286 290 293 289 291 291 295 297 299 299 299 298 294 295 298 299 298 298 292 296 300 301 304 304 306 304 302 295 290 288 283 280 282 287 291 290 287 286 287 290 289 291 290 276 nan nan nan 276 273 271 272 271 287
267 260 252 247 248 254 263 270 265 272 277 283 288 288 287 287 291 286 293 291 290 292 292 293 293 294 285 288 292 300 301 301 305 305 303 300 293 289 288 283 283 284 288 293 293 284 282 284 287 284 285 281 270 nan nan 268 273 279 nan nan 271 281
264 257 253 252 255 255 258 258 263 271 275 280 280 279 277 282 278 281 281 286 288 287 289 288 287 289 283 288 291 298 300 302 302 304 304 298 294 289 285 280 281 283 285 286 282 278 274 273 277 282 278 270 268 nan nan nan nan nan nan 271 272 283
268 266 261 261 262 263 264 264 268 270 271 275 278 277 277 277 278 280 283 285 287 288 286 286 295 298 288 277 288 295 298 299 300 301 301 294 294 289 281 275 276 278 282 284 284 277 274 267 267 270 276 273 267 271 nan nan nan nan nan 270 275 283
271 272 272 268 269 268 269 268 268 270 272 276 277 278 278 277 280 281 280 284 287 285 281 276 276 277 269 269 273 281 282 282 283 282 286 288 281 275 267 270 268 269 278 286 284 280 276 272 271 277 280 279 273 269 270 nan nan nan 269 276 277 280
269 269 268 266 263 268 269 267 269 271 272 272 274 276 276 277 278 278 281 285 286 284 278 272 275 276 267 268 274 278 284 284 283 287 286 285 280 275 270 268 266 269 273 277 279 277 274 276 278 278 280 282 281 275 274 272 nan nan nan 277 284 284
275 271 268 264 259 260 260 263 264 267 270 274 276 276 276 277 277 280 284 286 285 282 275 272 278 276 267 267 274 280 285 285 286 287 286 282 274 270 271 271 267 266 269 272 268 264 267 271 276 280 282 286 286 281 277 276 273 272 nan 281 288 286
283 284 286 285 281 274 269 271 274 277 275 280 280 278 278 281 280 281 284 283 281 276 270 272 277 273 265 266 271 276 279 282 282 283 280 277 nan 272 272 272 269 260 262 264 264 261 261 267 272 277 285 286 284 282 280 279 275 273 279 281 279 281
279 278 281 289 289 283 278 276 279 280 279 286 281 278 279 281 280 280 283 283 279 272 264 269 276 270 262 266 268 270 275 282 283 283 276 272 nan nan nan nan 269 261 258 263 263 261 259 260 268 276 283 282 282 283 283 279 276 277 nan nan nan 293
266 266 269 277 282 284 282 282 281 281 282 286 282 276 279 279 281 281 281 284 280 269 266 270 271 265 264 266 270 271 275 276 276 264 267 nan nan nan nan 277 274 266 261 264 264 259 258 262 267 271 274 278 284 286 283 282 280 nan nan nan nan 292
267 267 268 273 280 283 282 283 283 283 285 288 283 276 273 276 278 279 278 278 275 267 267 270 269 266 260 264 269 274 278 273 275 273 258 257 nan nan nan nan nan 277 269 265 264 260 260 264 267 266 270 277 283 281 278 276 279 nan nan nan nan 280
268 269 272 274 280 285 283 283 285 283 286 292 288 277 272 274 273 271 270 272 270 264 265 268 267 262 260 259 265 271 275 277 277 271 262 nan nan nan nan nan 274 271 268 263 260 256 256 268 268 266 271 274 276 278 277 278 279 nan nan nan nan nan
277 272 274 277 280 281 279 282 285 286 288 298 296 281 270 271 270 271 269 271 269 265 264 266 261 261 262 259 262 265 270 273 271 267 260 nan nan nan nan 268 267 271 267 259 257 257 255 260 271 270 268 272 274 280 282 278 280 nan nan nan nan nan
284 280 285 296 302 299 293 288 285 290 293 298 294 283 270 266 267 265 264 265 266 264 262 258 255 254 256 257 259 264 270 270 267 266 259 261 nan 270 nan 270 272 271 272 265 264 263 266 269 267 269 268 271 275 280 280 278 280 nan nan nan nan nan
288 300 311 322 331 332 320 303 292 291 296 297 290 277 265 259 261 262 261 261 262 261 259 254 251 256 258 260 264 269 271 269 265 262 260 259 263 269 nan nan 279 274 268 264 261 260 266 270 273 274 269 270 277 278 277 276 277 nan nan nan nan nan
301 311 313 312 328 340 337 322 306 299 292 292 283 267 260 260 255 257 258 256 256 256 255 254 255 259 262 264 268 273 273 268 265 262 259 254 258 272 275 274 273 280 275 268 267 261 263 270 270 268 264 267 270 279 282 278 278 277 nan nan nan nan
309 309 304 300 306 312 316 325 322 311 298 285 277 267 263 257 253 258 257 252 254 254 253 256 259 260 264 265 266 271 268 269 265 262 257 247 253 270 276 273 267 265 274 272 269 269 268 269 267 263 262 263 266 275 279 275 273 279 277 nan nan 284
304 304 304 305 310 310 304 299 307 315 307 287 275 267 263 260 259 258 256 250 246 250 253 258 262 263 264 266 267 268 266 266 265 260 251 243 252 267 271 273 269 260 271 270 270 273 273 270 265 261 257 257 261 265 267 277 278 280 nan nan 283 285
306 306 303 299 300 298 294 293 294 309 311 288 269 269 267 265 263 259 261 258 243 234 254 262 265 267 270 269 266 263 263 265 264 261 250 243 251 263 268 266 270 266 265 261 272 273 274 271 267 260 nan nan 256 259 265 nan 272 278 280 nan 285 286
307 306 298 298 304 305 301 305 306 309 312 300 283 281 282 274 265 257 261 262 261 251 254 267 269 272 273 271 267 264 262 261 263 261 253 250 254 262 273 270 265 270 266 259 259 267 273 266 nan nan nan nan nan 263 nan nan nan nan 272 nan 280 281
311 303 301 306 310 308 305 307 313 321 321 302 294 291 295 278 266 263 266 267 267 270 271 270 272 272 273 268 265 261 257 256 257 256 254 258 261 263 265 268 263 262 270 264 263 265 264 260 263 nan nan 264 263 261 266 273 nan nan nan nan 269 nan
304 306 307 310 310 305 296 292 304 321 317 304 294 297 292 281 278 273 271 268 271 275 278 275 274 274 270 267 262 257 252 255 254 249 246 250 254 253 258 262 264 257 256 266 266 272 267 262 nan nan 265 259 252 248 256 262 267 266 265 267 nan nan
307 306 305 304 302 301 288 280 291 303 310 305 300 297 283 274 277 280 277 275 273 273 273 269 271 273 268 260 258 256 250 250 254 248 246 250 254 256 258 268 271 266 262 253 256 266 274 251 nan nan 251 nan nan nan nan nan nan nan nan 264 268 nan
303 294 288 290 291 285 277 275 287 295 297 305 319 313 290 270 270 272 274 270 266 264 261 259 262 264 257 252 253 254 250 248 250 250 251 253 257 259 258 260 260 261 263 262 255 261 266 254 259 267 nan nan nan nan nan nan nan nan nan nan nan nan
274 267 263 262 269 272 270 270 277 280 284 288 294 305 296 280 276 273 266 263 260 258 256 253 255 256 251 248 245 248 250 247 248 252 253 254 258 262 261 263 264 263 267 265 266 255 255 251 257 nan nan nan nan nan nan nan nan nan nan nan nan nan
241 240 240 238 244 252 252 263 275 286 294 296 296 301 312 302 280 274 268 262 261 259 257 254 252 250 245 242 243 245 249 250 249 253 256 258 258 255 257 258 262 265 267 267 269 265 nan 245 249 nan nan nan nan nan nan nan nan nan nan nan nan nan
234 231 235 232 229 233 225 231 247 261 264 272 283 271 265 271 274 263 259 269 267 262 260 260 255 251 246 243 244 247 249 250 253 257 258 260 261 264 260 259 258 262 268 267 263 266 264 260 nan nan nan nan nan nan nan nan nan nan nan nan nan nan
273 259 258 249 238 230 221 218 218 224 235 241 251 262 266 261 266 265 263 263 265 265 262 257 255 252 248 246 246 248 249 248 252 256 260 263 264 263 261 254 257 257 259 266 268 265 266 nan nan nan nan nan nan nan nan nan nan nan nan nan nan nan
330 309 297 296 278 255 239 228 221 222 224 234 244 254 258 260 262 262 266 258 257 262 261 257 252 251 249 248 249 250 250 248 249 254 257 257 257 262 268 262 256 257 259 260 260 259 261 nan nan nan nan nan nan nan nan nan nan nan nan nan nan nan
308 311 305 305 291 275 260 241 235 234 234 235 242 245 250 254 258 259 264 262 255 251 251 250 246 243 246 248 249 252 251 250 250 251 252 257 257 259 259 257 259 262 263 263 256 260 262 260 nan nan nan nan nan nan nan nan nan nan nan nan nan nan
298 308 289 290 286 277 263 250 247 246 243 244 243 245 245 247 251 252 251 254 253 243 241 246 246 245 245 246 247 249 249 248 248 248 250 255 257 258 257 255 250 246 242 255 258 259 257 254 254 nan nan nan nan nan nan nan nan nan nan nan nan nan
285 295 274 268 267 271 275 264 254 248 247 248 247 244 246 247 250 249 245 249 252 250 247 249 248 247 250 251 251 249 249 247 247 245 245 248 252 255 255 252 252 261 258 252 254 259 258 259 259 253 255 255 nan nan nan nan nan nan nan nan nan nan
279 287 277 270 268 267 272 277 272 263 254 246 240 240 241 242 243 244 240 238 239 245 243 250 251 250 252 255 249 247 248 247 246 245 243 243 244 252 255 255 256 261 260 258 259 261 260 263 266 263 260 255 256 nan nan nan nan nan nan nan nan nan
275 279 272 273 276 275 270 268 269 268 257 244 235 230 234 240 246 248 244 240 238 233 229 240 254 257 256 258 258 256 247 237 236 236 232 234 234 235 247 253 249 251 259 258 258 265 263 264 261 260 256 258 256 nan nan nan nan nan nan nan nan nan
271 271 259 257 265 272 275 275 271 262 257 249 244 234 238 240 252 259 260 259 256 251 241 226 234 246 256 263 259 253 253 254 254 250 246 245 243 242 245 254 250 245 249 255 259 261 261 262 258 258 258 258 260 257 nan nan 263 nan nan nan nan nan
268 262 257 258 262 260 258 262 261 265 267 266 263 251 249 254 256 253 248 247 249 250 247 244 238 245 249 254 251 253 256 255 253 248 244 240 237 237 250 252 247 244 243 249 256 260 257 260 259 263 262 258 256 256 255 259 259 nan nan nan nan nan
262 261 258 260 259 263 257 260 271 278 277 276 273 273 272 265 253 239 233 235 240 248 252 249 242 243 248 251 251 251 249 249 249 247 244 245 246 237 233 237 241 249 249 249 254 259 257 260 259 259 257 264 260 257 258 256 256 nan nan nan nan nan